GMT,Max TemperatureF,Mean TemperatureF,Min TemperatureF,Max Dew PointF,MeanDew PointF,Min DewpointF,Max Humidity, Mean Humidity, Min Humidity, Max Sea Level PressureIn, Mean Sea Level PressureIn, Min Sea Level PressureIn, Max VisibilityMiles, Mean VisibilityMiles, Min VisibilityMiles, Max Wind SpeedMPH, Mean Wind SpeedMPH, Max Gust SpeedMPH,PrecipitationIn, CloudCover, Events, WindDirDegrees
2012-12-1,41,34,28,39,30,25,93,87,75,30.04,29.99,29.89,6,6,6,13,5,,0.00,1,,337
2012-12-2,37,30,24,34,30,23,100,91,87,30.01,29.92,29.71,6,6,6,13,3,,0.00,3,Rain,94
2012-12-3,46,40,35,41,38,34,100,88,81,29.68,29.55,29.50,6,6,4,23,9,30,0.00,4,Fog-Rain,255
2012-12-4,42,38,32,39,36,30,100,92,81,29.74,29.59,29.50,6,6,2,16,8,20,0.00,4,Rain,10
2012-12-5,37,30,24,32,26,23,93,87,65,30.01,29.93,29.77,6,6,6,8,2,,0.00,1,,59
2012-12-6,42,35,28,41,36,25,93,87,75,29.95,29.51,29.27,6,6,5,25,14,41,0.00,5,Rain,226
2012-12-7,44,37,30,39,33,28,93,84,70,30.15,29.81,29.39,6,6,6,16,7,,0.00,1,,337
2012-12-8,50,39,28,48,41,28,100,93,82,30.21,30.13,30.04,6,5,2,24,8,33,0.00,5,Rain,227
2012-12-9,48,39,30,45,36,28,93,79,66,30.18,30.04,29.95,6,6,4,32,18,37,0.00,3,Rain,305
2012-12-10,41,32,24,32,28,23,93,88,70,30.48,30.39,30.21,6,6,6,6,1,,0.00,1,,71
2012-12-11,37,29,21,32,26,19,93,89,75,30.48,30.40,30.27,6,6,6,6,2,,0.00,2,,112
2012-12-12,39,34,30,36,31,28,100,94,87,30.24,30.00,29.83,6,6,6,9,3,,0.00,4,Rain,93
2012-12-13,37,34,30,32,28,21,93,79,65,29.80,29.62,29.44,6,6,6,9,5,,0.00,4,Rain,90
2012-12-14,41,34,30,39,33,25,100,86,75,29.42,28.93,28.68,6,6,6,21,8,33,0.00,5,Rain,86
2012-12-15,46,44,41,43,42,39,93,89,87,29.21,28.99,28.74,6,6,6,17,12,,0.00,5,Rain,211
2012-12-16,50,46,41,43,41,37,93,88,76,29.33,29.30,29.24,6,6,6,14,7,,0.00,3,,136
2012-12-17,44,42,41,43,40,39,93,91,87,29.71,29.44,29.27,6,6,6,9,5,,0.00,4,Rain,55
2012-12-18,46,42,37,41,39,36,100,92,81,30.09,30.02,29.80,6,6,6,7,2,,0.00,5,,87
2012-12-19,44,42,39,39,38,36,93,82,76,30.04,29.88,29.77,6,6,6,21,14,26,0.00,4,Rain,106
2012-12-20,44,42,41,39,39,37,93,87,81,29.77,29.58,29.50,6,6,4,20,11,22,0.00,6,Rain,70
2012-12-21,42,42,41,41,39,37,93,92,87,29.86,29.78,29.59,6,6,6,8,5,,0.00,5,Rain,61
2012-12-22,50,46,41,48,43,39,100,89,87,29.77,29.40,29.15,6,6,4,21,12,31,0.00,5,Rain,103
2012-12-23,53,50,46,50,44,43,94,86,82,29.50,29.27,28.94,6,5,3,39,21,51,0.00,5,Rain,225
2012-12-24,46,42,39,45,42,37,93,92,81,29.47,29.27,29.18,6,6,3,13,8,,0.00,5,Rain,160
2012-12-25,46,42,37,43,39,36,100,88,81,29.36,29.23,29.12,6,6,4,23,8,36,0.00,4,Rain,210
2012-12-26,44,40,37,41,39,36,100,91,81,29.44,29.34,29.24,6,6,4,20,10,,0.00,4,Rain,80
2012-12-27,39,38,37,37,35,34,100,87,81,29.92,29.70,29.30,6,6,4,14,10,,0.00,4,Rain,70
2012-12-28,53,47,41,50,47,37,94,87,81,29.86,29.46,29.21,6,6,3,34,20,50,0.00,6,Rain,178
2012-12-29,53,47,41,48,40,36,87,80,71,29.27,29.22,29.18,6,6,4,24,18,36,0.00,4,Rain,208
2012-12-30,51,46,41,48,40,34,100,84,76,29.42,29.36,29.27,6,6,4,30,22,44,0.00,5,Rain,213
2012-12-31,51,44,37,48,41,36,94,82,71,29.36,29.20,29.03,6,6,4,31,22,46,0.00,5,Rain,238